Regional Weather Roundup
Issued by NWS Charleston, WV

Home | Current Version | Previous Version | Text Only | Print | Product List | Glossary Off
Versions: 1 2 3 4 5 6 7 8 9 10 11 12 13 14 15 16 17 18 19 20 21 22 23 24 25 26 27 28 29 30 31 32 33 34 35 36 37 38 39 40 41 42 43 44 45 46 47 48 49 50

000
ASUS41 KRLX 270010
RWRRLX
West Virginia Regional Weather Roundup
National Weather Service Charleston WV
700 PM EST MON JAN 26 2015

Note: "fair" indicates few or no clouds below 12,000 feet with no
significant weather and/or obstructions to visibility.

WVZ003-270100-
Northern Panhandle of West Virginia

CITY           SKY/WX    TMP DP  RH WIND       PRES   REMARKS
WHEELING       CLOUDY    24  20  84 NW5       29.82R
$$

WVZ009-270100-
Northwest West Virginia

CITY           SKY/WX    TMP DP  RH WIND       PRES   REMARKS
PARKERSBURG    CLOUDY    26  22  84 NW5       29.90R
$$

WVZ006-270100-
Western West Virginia

CITY           SKY/WX    TMP DP  RH WIND       PRES   REMARKS
HUNTINGTON     MOCLDY    26  19  74 NW7       29.93R
$$

WVZ015-270100-
West Central West Virginia

CITY           SKY/WX    TMP DP  RH WIND       PRES   REMARKS
CHARLESTON     FLURRIES  27  22  81 W8        29.89R
$$

WVZ022-031-270100-
North Central West Virginia

CITY           SKY/WX    TMP DP  RH WIND       PRES   REMARKS
CLARKSBURG     CLOUDY    27  24  89 W7        29.81R
MORGANTOWN     FLURRIES  27  22  81 NW3       29.80R
$$

WVZ025-035-042-045-270100-
Southern West Virginia

CITY           SKY/WX    TMP DP  RH WIND       PRES   REMARKS
BECKLEY        FLURRIES  23  20  88 NW10      29.77R
LOGAN          LGT SNOW  25  23  93 W7        29.86R
BLUEFIELD      CLOUDY    25  20  81 NW14      29.75R
LEWISBURG      FLURRIES  28  23  81 W7        29.73R
$$

WVZ047-270100-
Northern Mountains of West Virginia

CITY           SKY/WX    TMP DP  RH WIND       PRES   REMARKS
ELKINS         LGT SNOW  26  22  84 W6        29.76R FOG
$$

WVZ052-270100-
Eastern Panhandle of West Virginia

CITY           SKY/WX    TMP DP  RH WIND       PRES   REMARKS
MARTINSBURG    LGT SNOW  26  21  81 N12       29.79R
PETERSBURG     FLURRIES  29  28  96 CALM      29.77R
$$


USA.gov is the U.S. government's official web portal to all federal, state and local government web resources and services.